EW1802 Weather Reports


time (UTC)temp
C
wind
direction
speed
KPH
gust
KPH
rain 1hr
cm
rain 24hr
cm
rain mn
cm
humidity
%
barometer
mb
20260508054703 3 255 0.0 0.0 0.00 0.00 0.00 94 1012.4
20260508054204 3 255 0.0 0.0 0.00 0.00 0.00 94 1012.6
20260508053704 3 255 0.0 0.0 0.00 0.00 0.00 94 1012.6
20260508053204 3 255 0.0 0.0 0.00 0.00 0.00 94 1012.7
20260508052704 3 255 0.0 0.0 0.00 0.00 0.00 94 1012.7
20260508052204 3 255 0.0 0.0 0.00 0.00 0.00 94 1012.7
20260508051703 3 255 0.0 0.0 0.00 0.00 0.00 94 1012.6
20260508051203 3 255 0.0 0.0 0.00 0.00 0.00 94 1012.7
20260508050704 3 255 0.0 0.0 0.00 0.00 0.00 94 1012.7
20260508050204 3 255 0.0 0.0 0.00 0.00 0.00 94 1012.7
20260508045703 3 255 0.0 0.0 0.00 0.00 0.00 94 1012.6
20260508045203 2 255 0.0 0.0 0.00 0.00 0.00 93 1012.6
20260508044704 2 255 0.0 0.0 0.00 0.00 0.00 93 1012.7
20260508044204 2 255 0.0 0.0 0.00 0.00 0.00 94 1012.6
20260508043705 2 255 0.0 0.0 0.00 0.00 0.00 93 1012.6
20260508043204 2 255 0.0 0.0 0.00 0.00 0.00 93 1012.6
20260508042704 2 255 0.0 0.0 0.00 0.00 0.00 93 1012.5
20260508042204 2 255 0.0 0.0 0.00 0.00 0.00 92 1012.5
20260508041704 2 255 0.0 0.0 0.00 0.00 0.00 92 1012.5
20260508040204 2 255 0.0 0.0 0.00 0.00 0.00 91 1012.4
20260508035705 2 255 0.0 0.0 0.00 0.00 0.00 91 1012.4
20260508035203 3 255 0.0 0.0 0.00 0.00 0.00 90 1012.3
20260508034704 3 255 0.0 0.0 0.00 0.00 0.00 90 1012.3
20260508034204 3 255 0.0 0.0 0.00 0.00 0.00 90 1012.4
20260508033704 3 255 0.0 0.0 0.00 0.00 0.00 89 1012.3
20260508033204 3 255 0.0 0.0 0.00 0.00 0.00 89 1012.3
20260508032703 3 255 0.0 0.0 0.00 0.00 0.00 88 1012.3
20260508032204 3 255 0.0 0.0 0.00 0.00 0.00 87 1012.3
20260508031703 3 255 0.0 0.0 0.00 0.00 0.00 87 1012.3
20260508031204 3 255 0.0 0.0 0.00 0.00 0.00 86 1012.4
20260508030704 3 255 0.0 0.0 0.00 0.00 0.00 86 1012.4
20260508030204 4 255 0.0 0.0 0.00 0.00 0.00 86 1012.4
20260508025704 4 255 0.0 0.0 0.00 0.00 0.00 86 1012.4
20260508025204 4 255 0.0 0.0 0.00 0.00 0.00 85 1012.5
20260508024704 4 255 0.0 0.0 0.00 0.00 0.00 85 1012.5
20260508024204 5 255 0.0 0.0 0.00 0.00 0.00 84 1012.4
20260508023204 5 255 0.0 0.0 0.00 0.00 0.00 82 1012.4
20260508022703 5 255 0.0 0.0 0.00 0.00 0.00 82 1012.3
20260508022204 5 255 0.0 0.0 0.00 0.00 0.00 81 1012.3
20260508021704 5 255 0.0 0.0 0.00 0.00 0.00 80 1012.3
20260508021203 5 255 0.0 0.0 0.00 0.00 0.00 78 1012.2
20260508020704 6 255 0.0 0.0 0.00 0.00 0.00 76 1012.2
20260508020204 6 255 0.0 0.0 0.00 0.00 0.00 76 1012.1
20260508015703 6 255 0.0 0.0 0.00 0.00 0.00 76 1012.1
20260508015203 6 255 0.0 0.0 0.00 0.00 0.00 73 1012.0
20260508014204 7 255 0.0 0.0 0.00 0.00 0.00 71 1011.9
20260508013703 7 255 0.0 0.0 0.00 0.00 0.00 72 1011.9
20260508013205 7 255 0.0 0.0 0.00 0.00 0.00 70 1011.9
20260508012704 7 255 0.0 0.0 0.00 0.00 0.00 69 1011.8
20260508011704 8 255 0.0 0.0 0.00 0.00 0.00 67 1011.7
20260508011204 8 255 0.0 0.0 0.00 0.00 0.00 65 1011.6
20260508010703 8 255 0.0 0.0 0.00 0.00 0.00 62 1011.6
20260508005704 9 255 0.0 0.0 0.00 0.00 0.00 58 1011.5
20260508005204 9 255 0.0 0.0 0.00 0.00 0.00 57 1011.4
20260508004705 9 255 0.0 0.0 0.00 0.00 0.00 57 1011.4
20260508004203 9 255 0.0 0.0 0.00 0.00 0.00 57 1011.3
20260508003704 10 255 0.0 0.0 0.00 0.00 0.00 56 1011.2
20260508003204 10 255 0.0 0.0 0.00 0.00 0.00 56 1011.1
20260508002704 10 255 0.0 0.0 0.00 0.00 0.00 55 1011.0
20260508002204 10 279 0.0 0.0 0.00 0.00 0.00 56 1011.0
20260508001704 10 257 0.0 0.0 0.00 0.00 0.00 56 1011.0
20260508001203 10 219 0.0 0.0 0.00 0.00 0.00 55 1011.0
20260508000705 11 219 0.0 0.0 0.00 0.00 0.00 56 1010.9
20260508000205 11 218 0.0 0.0 0.00 0.00 0.00 54 1010.8
20260507235704 11 253 0.0 0.0 0.00 0.00 0.00 53 1010.7
20260507235204 11 253 0.0 0.0 0.00 0.00 0.00 52 1010.6
20260507234703 11 236 0.0 0.0 0.00 0.00 0.00 52 1010.6
20260507234203 11 235 0.0 0.0 0.00 0.00 0.00 52 1010.6
20260507233203 12 258 0.0 0.0 0.00 0.00 0.00 50 1010.5
20260507232704 12 231 0.0 0.0 0.00 0.00 0.00 50 1010.5
20260507232203 12 213 0.0 0.0 0.00 0.00 0.00 50 1010.4
20260507231203 12 227 0.0 0.0 0.00 0.00 0.00 47 1010.3
20260507230704 13 274 0.0 0.0 0.00 0.00 0.00 49 1010.4
20260507230204 13 269 0.0 0.0 0.00 0.00 0.00 49 1010.4
20260507225704 13 243 0.0 0.0 0.00 0.00 0.00 47 1010.3
20260507225203 14 229 0.0 0.0 0.00 0.00 0.00 46 1010.3
20260507224204 15 226 0.0 0.0 0.00 0.00 0.00 46 1010.2
20260507223203 15 87 0.0 0.0 0.00 0.00 0.00 46 1010.1
20260507221704 15 252 0.0 0.0 0.00 0.00 0.00 45 1009.9
20260507221204 15 244 0.0 0.0 0.00 0.00 0.00 48 1009.9
20260507220204 15 241 0.0 0.0 0.00 0.00 0.00 46 1009.7
20260507215704 15 216 0.0 0.0 0.00 0.00 0.00 46 1009.5
20260507215205 14 245 0.0 0.0 0.00 0.00 0.00 47 1009.6
20260507214704 15 256 0.0 0.0 0.00 0.00 0.00 43 1009.5
20260507213704 15 274 0.0 1.6 0.00 0.00 0.00 40 1009.3
20260507213204 15 257 0.0 0.0 0.00 0.00 0.00 44 1009.3
20260507212703 15 235 0.0 1.6 0.00 0.00 0.00 41 1009.2
20260507212203 15 235 0.0 0.0 0.00 0.00 0.00 41 1009.2
20260507210704 16 255 0.0 1.6 0.00 0.00 0.00 41 1009.2
20260507205703 16 263 0.0 0.0 0.00 0.00 0.00 42 1009.0
20260507205204 16 232 0.0 0.0 0.00 0.00 0.00 42 1009.0
20260507204704 16 123 0.0 0.0 0.00 0.00 0.00 43 1009.0
20260507203704 16 202 0.0 0.0 0.00 0.00 0.00 41 1009.0
20260507203203 16 291 0.0 0.0 0.00 0.00 0.00 41 1009.2
20260507202703 17 225 0.0 0.0 0.00 0.00 0.00 39 1009.2
20260507201204 17 281 0.0 0.0 0.00 0.00 0.00 39 1009.2
20260507200704 16 224 0.0 0.0 0.00 0.00 0.00 41 1009.3
20260507200204 16 186 0.0 0.0 0.00 0.00 0.00 41 1009.4
20260507195703 16 103 0.0 0.0 0.00 0.00 0.00 41 1009.3
20260507195204 16 239 0.0 4.8 0.00 0.00 0.00 39 1009.5
20260507194704 16 252 1.6 9.7 0.00 0.00 0.00 36 1009.5
20260507194204 17 276 0.0 3.2 0.00 0.00 0.00 38 1009.6
20260507193203 17 245 0.0 1.6 0.00 0.00 0.00 36 1009.5
20260507192703 17 239 0.0 0.0 0.00 0.00 0.00 40 1009.6
20260507192203 17 286 0.0 9.7 0.00 0.00 0.00 37 1009.5
20260507191204 17 249 0.0 1.6 0.00 0.00 0.00 39 1009.6
20260507190705 17 229 0.0 0.0 0.00 0.00 0.00 37 1009.5
20260507190203 17 240 0.0 1.6 0.00 0.00 0.00 39 1009.5
20260507185703 17 231 0.0 3.2 0.00 0.00 0.00 40 1009.5
20260507185205 17 278 0.0 0.0 0.00 0.00 0.00 39 1009.5
20260507184703 17 243 0.0 0.0 0.00 0.00 0.00 41 1009.5
20260507184204 17 203 0.0 4.8 0.00 0.00 0.00 34 1009.6
20260507183703 17 156 0.0 0.0 0.00 0.00 0.00 38 1009.7
20260507183203 17 228 0.0 1.6 0.00 0.00 0.00 40 1009.7
20260507182703 17 211 1.6 9.7 0.00 0.00 0.00 41 1009.7
20260507182204 17 166 0.0 0.0 0.00 0.00 0.00 39 1009.6
20260507181704 17 292 0.0 1.6 0.00 0.00 0.00 41 1009.7
20260507181204 17 241 0.0 4.8 0.00 0.00 0.00 40 1009.8
20260507180703 17 295 0.0 0.0 0.00 0.00 0.00 40 1009.8
20260507180203 17 235 0.0 3.2 0.00 0.00 0.00 38 1010.0
20260507175703 16 242 0.0 0.0 0.00 0.00 0.00 42 1010.0
20260507175203 16 251 0.0 1.6 0.00 0.00 0.00 41 1010.1
20260507174703 16 200 0.0 8.0 0.00 0.00 0.00 44 1010.1
20260507174204 16 271 0.0 4.8 0.00 0.00 0.00 41 1010.2
20260507173704 16 297 0.0 4.8 0.00 0.00 0.00 41 1010.2
20260507173204 16 276 0.0 0.0 0.00 0.00 0.00 44 1010.2
20260507172705 16 185 0.0 0.0 0.00 0.00 0.00 44 1010.3
20260507172204 16 211 0.0 0.0 0.00 0.00 0.00 44 1010.3
20260507171703 16 211 0.0 4.8 0.00 0.00 0.00 44 1010.3
20260507171203 15 307 0.0 0.0 0.00 0.00 0.00 46 1010.4
20260507170203 15 273 0.0 8.0 0.00 0.00 0.00 42 1010.4
20260507165205 15 229 0.0 0.0 0.00 0.00 0.00 44 1010.5
20260507164704 15 200 0.0 1.6 0.00 0.00 0.00 45 1010.6
20260507164204 16 184 0.0 0.0 0.00 0.00 0.00 41 1010.5
20260507163703 16 298 0.0 3.2 0.00 0.00 0.00 48 1010.6
20260507163204 15 210 0.0 0.0 0.00 0.00 0.00 45 1010.5
20260507162704 16 287 0.0 4.8 0.00 0.00 0.00 45 1010.5
20260507162204 16 225 0.0 4.8 0.00 0.00 0.00 42 1010.6
20260507161704 15 214 0.0 1.6 0.00 0.00 0.00 45 1010.5
20260507161203 15 293 0.0 0.0 0.00 0.00 0.00 48 1010.6
20260507160703 15 201 0.0 1.6 0.00 0.00 0.00 47 1010.7
20260507160204 14 232 0.0 8.0 0.00 0.00 0.00 50 1010.7
20260507155205 14 281 0.0 0.0 0.00 0.00 0.00 46 1010.8
20260507154703 15 240 0.0 0.0 0.00 0.00 0.00 48 1010.8
20260507154204 14 199 0.0 1.6 0.00 0.00 0.00 48 1010.9
20260507153704 14 283 0.0 4.8 0.00 0.00 0.00 49 1010.8
20260507153204 14 229 0.0 1.6 0.00 0.00 0.00 49 1010.9
20260507152703 14 212 1.6 9.7 0.00 0.00 0.00 49 1011.0
20260507152204 13 225 0.0 0.0 0.00 0.00 0.00 51 1011.0
20260507151704 13 234 0.0 0.0 0.00 0.00 0.00 51 1011.1
20260507151204 13 205 0.0 1.6 0.00 0.00 0.00 53 1011.1
20260507150704 13 345 0.0 0.0 0.00 0.00 0.00 54 1011.1
20260507150204 12 275 0.0 0.0 0.00 0.00 0.00 56 1011.2
20260507145704 12 269 0.0 3.2 0.00 0.00 0.00 54 1011.3
20260507145203 12 285 0.0 1.6 0.00 0.00 0.00 53 1011.4
20260507144704 12 238 0.0 1.6 0.00 0.00 0.00 53 1011.4
20260507144203 12 247 0.0 1.6 0.00 0.00 0.00 57 1011.4
20260507143704 12 264 0.0 0.0 0.00 0.00 0.00 58 1011.5
20260507143204 12 296 0.0 0.0 0.00 0.00 0.00 59 1011.5
20260507142203 12 199 0.0 0.0 0.00 0.00 0.00 63 1011.6
20260507141204 12 291 0.0 4.8 0.00 0.00 0.00 62 1011.9
20260507140704 12 256 0.0 0.0 0.00 0.00 0.00 65 1011.9
20260507140204 11 210 0.0 0.0 0.00 0.00 0.00 66 1012.0
20260507135704 11 237 0.0 0.0 0.00 0.00 0.00 65 1012.0
20260507135204 11 267 0.0 3.2 0.00 0.00 0.00 65 1012.1
20260507134204 11 221 0.0 0.0 0.00 0.00 0.00 68 1012.1
20260507133703 11 221 0.0 0.0 0.00 0.00 0.00 65 1012.2
20260507133204 11 265 0.0 1.6 0.00 0.00 0.00 65 1012.2
20260507132703 11 243 0.0 0.0 0.00 0.03 0.00 66 1012.2
20260507132204 11 248 0.0 0.0 0.00 0.03 0.00 66 1012.3
20260507131703 11 201 0.0 0.0 0.00 0.03 0.00 68 1012.3
20260507131204 10 240 0.0 0.0 0.00 0.03 0.00 69 1012.2
20260507130704 10 195 0.0 0.0 0.00 0.03 0.00 70 1012.2
20260507130203 10 211 0.0 0.0 0.00 0.05 0.00 67 1012.2
20260507125704 10 205 0.0 0.0 0.00 0.08 0.00 71 1012.3
20260507125204 10 217 0.0 0.0 0.00 0.10 0.00 73 1012.4
20260507124704 10 209 0.0 0.0 0.00 0.10 0.00 73 1012.3
20260507124204 10 203 0.0 0.0 0.00 0.10 0.00 74 1012.4
20260507123205 9 197 0.0 0.0 0.00 0.10 0.00 80 1012.4
20260507122705 9 197 0.0 0.0 0.00 0.10 0.00 81 1012.5
20260507122205 9 234 0.0 0.0 0.00 0.10 0.00 84 1012.5
20260507121704 8 249 0.0 0.0 0.00 0.10 0.00 89 1012.4
20260507121204 8 256 0.0 0.0 0.00 0.10 0.00 90 1012.4
20260507120703 8 257 0.0 0.0 0.00 0.13 0.00 94 1012.4
20260507120205 8 257 0.0 0.0 0.00 0.13 0.00 95 1012.4
20260507115703 7 257 0.0 0.0 0.00 0.15 0.00 98 1012.4
20260507114704 6 257 0.0 0.0 0.00 0.18 0.00 98 1012.5
20260507113703 4 257 0.0 0.0 0.00 0.20 0.00 98 1012.5
20260507113204 3 257 0.0 0.0 0.00 0.20 0.00 98 1012.5
20260507112704 2 257 0.0 0.0 0.00 0.20 0.00 97 1012.3
20260507112203 2 257 0.0 0.0 0.00 0.20 0.00 97 1012.3
20260507111705 2 257 0.0 0.0 0.00 0.20 0.00 97 1012.3
20260507111204 2 257 0.0 0.0 0.00 0.20 0.00 98 1012.3
20260507110703 1 257 0.0 0.0 0.00 0.20 0.00 98 1012.2
20260507110203 1 257 0.0 0.0 0.00 0.20 0.00 98 1012.2
20260507105705 1 257 0.0 0.0 0.00 0.20 0.00 97 1012.2
20260507105204 0 257 0.0 0.0 0.00 0.20 0.00 97 1012.1
20260507104204 0 257 0.0 0.0 0.00 0.20 0.00 97 1012.1
20260507103704 0 257 0.0 0.0 0.00 0.20 0.00 97 1012.1
20260507102203 0 257 0.0 0.0 0.00 0.23 0.00 97 1012.0
20260507101704 0 257 0.0 0.0 0.00 0.23 0.00 97 1011.9
20260507101204 0 257 0.0 0.0 0.00 0.25 0.00 97 1011.8
20260507100703 0 257 0.0 0.0 0.00 0.25 0.00 97 1011.8
20260507100203 0 257 0.0 0.0 0.00 0.28 0.00 97 1011.8
20260507095704 0 257 0.0 0.0 0.00 0.28 0.00 97 1011.8
20260507095204 1 257 0.0 0.0 0.00 0.30 0.00 97 1011.8
20260507094704 1 257 0.0 0.0 0.00 0.33 0.00 97 1011.8
20260507094204 1 257 0.0 0.0 0.00 0.38 0.00 97 1011.7
20260507093704 1 257 0.0 0.0 0.00 0.38 0.00 97 1011.7
20260507093204 1 257 0.0 0.0 0.00 0.41 0.00 97 1011.8
20260507092703 1 257 0.0 0.0 0.00 0.41 0.00 96 1011.7
20260507092203 1 257 0.0 0.0 0.00 0.41 0.00 96 1011.7
20260507091704 1 257 0.0 0.0 0.00 0.41 0.00 96 1011.8
20260507091204 1 257 0.0 0.0 0.00 0.43 0.00 96 1011.8
20260507090703 1 257 0.0 0.0 0.00 0.43 0.00 96 1011.9
20260507090204 1 257 0.0 0.0 0.00 0.43 0.00 96 1011.9
20260507085703 1 257 0.0 0.0 0.00 0.43 0.00 96 1011.9
20260507085204 1 257 0.0 0.0 0.00 0.46 0.00 96 1011.8
20260507084704 1 257 0.0 0.0 0.00 0.48 0.00 96 1011.9
20260507084204 1 257 0.0 0.0 0.00 0.53 0.00 96 1011.8
20260507083704 1 257 0.0 0.0 0.00 0.56 0.00 96 1011.8
20260507083204 1 257 0.0 0.0 0.00 0.56 0.00 96 1011.9
20260507082703 1 257 0.0 0.0 0.00 0.61 0.00 96 1011.9
20260507082204 2 257 0.0 0.0 0.00 0.64 0.00 96 1011.9
20260507081703 2 257 0.0 0.0 0.00 0.69 0.00 96 1011.8
20260507081203 2 257 0.0 0.0 0.00 0.71 0.00 96 1011.8
20260507080704 2 257 0.0 0.0 0.00 0.74 0.00 96 1011.9
20260507080204 2 257 0.0 0.0 0.00 0.76 0.00 96 1011.9
20260507075204 2 257 0.0 0.0 0.00 0.79 0.00 96 1011.9
20260507074704 2 257 0.0 0.0 0.00 0.81 0.00 95 1011.9
20260507074204 2 257 0.0 0.0 0.00 0.81 0.00 95 1011.9
20260507073704 2 257 0.0 0.0 0.00 0.84 0.00 95 1011.9
20260507073204 3 257 0.0 0.0 0.00 0.84 0.00 95 1011.9
20260507072704 3 257 0.0 0.0 0.00 0.86 0.00 95 1011.9
20260507072204 3 257 0.0 0.0 0.00 0.86 0.00 95 1011.9
20260507071704 3 257 0.0 0.0 0.00 0.86 0.00 95 1011.9
20260507071205 3 257 0.0 0.0 0.00 0.86 0.00 94 1011.8
20260507070704 3 257 0.0 0.0 0.00 0.86 0.00 95 1011.8
20260507070203 3 257 0.0 0.0 0.00 0.86 0.00 95 1011.9
20260507065703 3 257 0.0 0.0 0.00 0.86 0.00 94 1012.0
20260507065204 4 257 0.0 0.0 0.00 0.86 0.00 94 1012.0
20260507064704 4 257 0.0 0.0 0.00 0.86 0.00 94 1012.0
20260507063204 5 257 0.0 0.0 0.00 0.86 0.00 93 1012.0
20260507062704 5 257 0.0 0.0 0.00 0.86 0.00 92 1012.0
20260507061703 5 257 0.0 0.0 0.00 0.86 0.00 92 1012.1
20260507061204 5 257 0.0 0.0 0.00 0.86 0.00 92 1012.1
20260507060203 5 257 0.0 0.0 0.00 0.86 0.00 92 1012.2
20260507055703 6 257 0.0 0.0 0.00 0.86 0.00 92 1012.3
20260507055204 6 257 0.0 0.0 0.00 0.86 0.00 91 1012.3